FW9685 Weather Reports


Display with metric or nautical units.
time (UTC)temp
F
wind
direction
speed
MPH
gust
MPH
rain 1hr
in
rain 24hr
in
rain mn
in
humidity
%
barometer
mb
20260505214609 82 238 15.0 31.0 0.00 0.00 0.00 23 1009.9
20260505213101 82 256 19.0 29.0 0.00 0.00 0.00 22 1009.9
20260505211556 82 262 20.0 27.0 0.00 0.00 0.00 22 1010.2
20260505210059 82 254 21.0 28.0 0.00 0.00 0.00 20 1010.5
20260505204604 83 238 23.0 31.0 0.00 0.00 0.00 20 1010.0
20260505203057 82 223 18.0 27.0 0.00 0.00 0.00 20 1010.1
20260505201555 82 257 13.0 22.0 0.00 0.00 0.00 21 1010.2
20260505200105 82 239 15.0 21.0 0.00 0.00 0.00 22 1010.4
20260505194606 82 261 13.0 19.0 0.00 0.00 0.00 22 1010.4
20260505193053 82 267 13.0 20.0 0.00 0.00 0.00 23 1010.7
20260505191556 82 279 13.0 23.0 0.00 0.00 0.00 22 1010.8
20260505190056 82 279 17.0 24.0 0.00 0.00 0.00 23 1010.9
20260505184555 81 257 18.0 27.0 0.00 0.00 0.00 22 1010.9
20260505183055 82 269 17.0 30.0 0.00 0.00 0.00 21 1011.0
20260505181553 83 292 19.0 28.0 0.00 0.00 0.00 22 1011.2
20260505180108 82 265 20.0 30.0 0.00 0.00 0.00 23 1011.3
20260505174603 82 278 20.0 32.0 0.00 0.00 0.00 22 1011.2
20260505173051 82 271 18.0 31.0 0.00 0.00 0.00 24 1011.3
20260505171551 81 280 23.0 30.0 0.00 0.00 0.00 24 1011.1
20260505170053 81 269 18.0 27.0 0.00 0.00 0.00 24 1011.2
20260505164552 80 269 18.0 28.0 0.00 0.00 0.00 24 1011.2
20260505163054 81 281 20.0 28.0 0.00 0.00 0.00 23 1011.1
20260505161604 80 284 21.0 30.0 0.00 0.00 0.00 23 1011.3
20260505153053 78 275 15.0 20.0 0.00 0.00 0.00 25 1010.8
20260505151552 78 264 11.0 18.0 0.00 0.00 0.00 27 1010.8
20260505140108 70 247 10.0 14.0 0.00 0.00 0.00 52 1009.6
20260505124556 64 223 9.0 13.0 0.00 0.00 0.00 76 1009.2
20260505123101 63 204 9.0 11.0 0.00 0.00 0.00 79 1008.9
20260505121551 62 204 9.0 12.0 0.00 0.00 0.00 79 1008.6
20260505120057 62 200 8.0 10.0 0.00 0.00 0.00 79 1008.5
20260505114553 63 192 9.0 11.0 0.00 0.00 0.00 78 1008.4
20260505113106 63 212 8.0 11.0 0.00 0.00 0.00 77 1008.2
20260505111553 64 209 8.0 11.0 0.00 0.00 0.00 77 1008.5
20260505101557 66 219 10.0 15.0 0.00 0.00 0.00 74 1008.1
20260505100054 66 211 11.0 15.0 0.00 0.00 0.00 73 1008.0
20260505094553 67 224 10.0 14.0 0.00 0.00 0.00 73 1008.1
20260505093052 67 209 10.0 14.0 0.00 0.00 0.00 73 1008.0
20260505091611 68 205 10.0 16.0 0.00 0.00 0.00 72 1008.0
20260505090052 68 209 13.0 17.0 0.00 0.00 0.00 71 1008.0
20260505084552 68 202 13.0 19.0 0.00 0.00 0.00 70 1007.8
20260505083103 68 209 11.0 18.0 0.00 0.00 0.00 69 1007.9
20260505081602 69 191 14.0 21.0 0.00 0.00 0.00 68 1008.2
20260505080107 69 198 11.0 18.0 0.00 0.00 0.00 67 1008.2
20260505074553 70 194 9.0 16.0 0.00 0.00 0.00 65 1008.4
20260505073051 70 192 12.0 18.0 0.00 0.00 0.00 64 1008.5
20260505071604 70 195 12.0 22.0 0.00 0.00 0.00 63 1008.7
20260505070055 71 198 14.0 21.0 0.00 0.00 0.00 62 1008.7
20260505064551 72 196 13.0 19.0 0.00 0.00 0.00 59 1008.8
20260505063115 72 195 13.0 20.0 0.00 0.00 0.00 57 1009.0
20260505061618 72 194 11.0 16.0 0.00 0.00 0.00 55 1009.1
20260505054554 73 205 11.0 18.0 0.00 0.00 0.00 51 1009.0
20260505053059 74 198 12.0 21.0 0.00 0.00 0.00 49 1009.2
20260505051612 74 192 11.0 16.0 0.00 0.00 0.00 45 1009.3
20260505041555 78 227 8.0 15.0 0.00 0.00 0.00 22 1009.2
20260505040055 79 225 10.0 14.0 0.00 0.00 0.00 20 1009.0
20260505034555 80 234 12.0 17.0 0.00 0.00 0.00 19 1008.9
20260505033053 80 238 12.0 18.0 0.00 0.00 0.00 18 1009.1
20260505031557 81 239 13.0 21.0 0.00 0.00 0.00 17 1008.8
20260505030055 81 238 13.0 18.0 0.00 0.00 0.00 17 1008.8
20260505024554 81 236 12.0 19.0 0.00 0.00 0.00 16 1008.5
20260505023057 82 231 13.0 21.0 0.00 0.00 0.00 16 1008.5
20260505021558 83 230 16.0 23.0 0.00 0.00 0.00 15 1008.1
20260505020104 83 229 16.0 23.0 0.00 0.00 0.00 15 1008.1
20260505014558 83 246 18.0 26.0 0.00 0.00 0.00 15 1008.0
20260505013102 84 246 19.0 25.0 0.00 0.00 0.00 14 1007.9
20260505011555 84 239 19.0 29.0 0.00 0.00 0.00 13 1008.0
20260505010111 85 240 18.0 26.0 0.00 0.00 0.00 12 1007.7
20260505004555 85 234 19.0 27.0 0.00 0.00 0.00 12 1007.6
20260505003058 86 248 20.0 31.0 0.00 0.00 0.00 11 1008.0
20260505001555 87 234 22.0 34.0 0.00 0.00 0.00 10 1008.1
20260505000058 87 246 23.0 31.0 0.00 0.00 0.00 11 1008.2
20260504234555 87 252 19.0 29.0 0.00 0.00 0.00 11 1008.3
20260504233108 87 256 19.0 28.0 0.00 0.00 0.00 11 1008.6
20260504231551 87 246 21.0 32.0 0.00 0.00 0.00 13 1008.7
20260504224551 87 238 18.0 35.0 0.00 0.00 0.00 16 1009.1
20260504223059 87 234 23.0 33.0 0.00 0.00 0.00 16 1009.0
20260504221555 86 254 21.0 29.0 0.00 0.00 0.00 16 1009.1
20260504220056 85 247 23.0 32.0 0.00 0.00 0.00 15 1009.4